Regional Weather Roundup
Issued by NWS Cleveland, OH

Home | Current Version | Previous Version | Graphics & Text | Print | Product List | Glossary On
Versions: 1 2 3 4 5 6 7 8 9 10 11 12 13 14 15 16 17 18 19 20 21 22 23 24 25 26 27 28 29 30 31 32 33 34 35 36 37 38 39 40 41 42 43 44 45 46 47 48 49 50
000
ASUS41 KCLE 220212
RWRCLE
OHIO REGIONAL WEATHER ROUNDUP
NATIONAL WEATHER SERVICE WILMINGTON, OH
900 PM EST TUE FEB 21 2017

NOTE: "FAIR" INDICATES FEW OR NO CLOUDS BELOW 12,000 FEET WITH NO
SIGNIFICANT WEATHER AND/OR OBSTRUCTIONS TO VISIBILITY.

OHZ001>008-015>018-024>027-034-035-043-044-220300-
   NORTHWEST OHIO

CITY           SKY/WX    TMP DP  RH WIND       PRES   REMARKS
DEFIANCE       FAIR      48  47  96 CALM      29.94F FOG
FINDLAY        CLOUDY    57  47  69 CALM      29.94S
TOLEDO EXPRESS CLOUDY    50  50 100 CALM      29.94F
TOLEDO EXEC    MOCLDY    50  49  96 S3        29.95F FOG
LIMA           MOCLDY    58  49  72 SW8       29.95R
$$

OHZ009>014-019>023-028>033-038-089-220300-
   NORTHEAST OHIO

CITY           SKY/WX    TMP DP  RH WIND       PRES   REMARKS
CLE-HOPKINS    CLOUDY    58  44  60 CALM      29.98S
CLE-LAKEFRONT  CLOUDY    49  41  74 CALM      29.96R
CUY CO. ARPT   CLOUDY    52  46  82 CALM      29.97S
LORAIN-ELYRIA  CLOUDY    54  44  69 CALM      29.97R
ASHTABULA      CLOUDY    51  44  77 CALM      29.98R
AKRON-CANTON   CLOUDY    55  44  66 SW5       29.97S
WOOSTER        CLOUDY    57  46  66 SW7       29.96F
MANSFIELD      CLOUDY    60  47  61 SW7       29.96S
YOUNGSTOWN     CLOUDY    59  44  57 S7        29.97F
$$

OHZ042-051>053-060>062-070>072-077>081-220300-
  SOUTHWEST OHIO

CITY           SKY/WX    TMP DP  RH WIND       PRES   REMARKS
CINC-COVINGTON LGT RAIN  56  55  97 SE3       29.99S FOG
CINC-LUNKEN    LGT RAIN  55  55 100 CALM      30.00F VSB 1
HAMILTON       LGT RAIN  55  55 100 CALM      30.00S FOG
DAYTON         LGT RAIN  58  51  78 S13       29.98S
WRIGHT-PAT AFB DRIZZLE   57  56  96 S9        29.98R
DAYTON GENERAL LGT RAIN  55  53  93 S7        29.98S
WILMINGTON     LGT RAIN  53  52  96 CALM      30.00S FOG
$$

OHZ036-037-039>041-045>050-054>059-063>069-073>076-082>088-220300-
  CENTRAL AND SOUTHEAST OHIO

CITY           SKY/WX    TMP DP  RH WIND       PRES   REMARKS
COLUMBUS       CLOUDY    59  51  75 CALM      29.97S
OSU AIRPORT    FAIR      58  51  78 S5        29.97S
BOLTON FIELD   CLOUDY    56  51  84 SW9       29.98S
RICKENBACK AFB DRIZZLE   55  52  90 S8        29.98S
NEWARK         CLOUDY    58  49  72 VRB3      29.97S
MARION         CLOUDY    57  47  69 S7        29.97S
LANCASTER      CLOUDY    57  52  83 SE6       29.99F
ZANESVILLE     CLOUDY    57  49  74 S6        29.98S
NEW PHILLY     MOCLDY    54  47  77 E3        29.97F
$$




USA.gov is the U.S. government's official web portal to all federal, state and local government web resources and services.